, AK

(GMT )
Kotzebue

Weather History for PAOT - May, 2013

Change the Weather History Date:

Monday, May 27, 2013

  Actual Average Record
Temperature  
Mean Temperature 36 °F 37 °F  
Max Temperature 38 °F 42 °F 63 °F (1972)
Min Temperature 34 °F 31 °F 11 °F (1984)
Degree Days  
Heating Degree Days 29 28  
Month to date heating degree days 1084 918  
Since 1 July heating degree days 14987 14696  
Cooling Degree Days 0 0  
Month to date cooling degree days 0 0  
Year to date cooling degree days 0 0  
Moisture  
Dew Point 33 °F    
Average Humidity 0    
Maximum Humidity 0    
Minimum Humidity 0    
Precipitation  
Precipitation 0.00 in 0.01 in 0.25 in (1998)
Month to date precipitation 0.86 0.36  
Year to date precipitation 3.60 2.62  
Snow  
Snow 0.00 in 0.00 in 0.40 in (1991)
Month to date snowfall 6.3 1.2  
Since 1 July snowfall 37.4 59.8  
Snow Depth 1.00 in    
Sea Level Pressure  
Sea Level Pressure 29.89 in    
Wind  
Wind Speed 5 mph (West)    
Max Wind Speed 8 mph    
Max Gust Speed 10 mph    
Visibility 10 miles    
Events      
T = Trace of Precipitation, MM = Missing Value Source: NWS Daily Summary

Daily Weather History Graph

Daily Weather History Graph

Search for Another Location

Airport or City:

Trip Planner

Search our weather history database for the weather conditions in past years. The results will help you decide how hot, cold, wet, or windy it might be!

Date:

Astronomy

May. 27, 2013 Rise Set
Actual Time 3:55 AM AKDT 1:45 AM AKDT
Civil Twilight Sun does not set Sun does not set
Nautical Twilight Sun does not set Sun does not set
Astronomical Twilight Sun does not set Sun does not set
Moon 2:44 AM AKDT (5/27) 7:44 AM AKDT (5/27)
Length of Visible Light 24h 00m
Length of Day
21h 49m
Waning Gibbous, 90% of the Moon is Illuminated
May 27
Waning Gibbous
May 31
Last Quarter
Jun 8
New
Jun 16
First Quarter
Jun 23
Full

Hourly Weather History & Observations

Time (AKDT) Temp. Windchill Dew Point Humidity Pressure Visibility Wind Dir Wind Speed Gust Speed Precip Events Conditions
12:53 AM 37.0 °F - 33.1 °F 86% 29.89 in 10.0 mi Calm Calm - N/A   Scattered Clouds
1:53 AM 37.0 °F - 33.1 °F 86% 29.90 in 10.0 mi Calm Calm - N/A   Scattered Clouds
2:53 AM 35.1 °F 32.2 °F 33.1 °F 92% 29.91 in 10.0 mi SW 3.5 mph - N/A   Mostly Cloudy
3:53 AM 35.1 °F - 33.1 °F 92% 29.91 in 10.0 mi Calm Calm - N/A   Overcast
4:53 AM 35.1 °F - 33.1 °F 92% 29.90 in 10.0 mi Calm Calm - N/A   Overcast
5:53 AM 35.1 °F - 33.1 °F 92% 29.90 in 10.0 mi Calm Calm - N/A   Overcast
6:53 AM 34.0 °F 31.0 °F 32.0 °F 92% 29.90 in 10.0 mi SW 3.5 mph - N/A   Mostly Cloudy
7:53 AM 34.0 °F 28.8 °F 32.0 °F 92% 29.91 in 10.0 mi SW 5.8 mph - N/A   Mostly Cloudy
8:53 AM 34.0 °F 29.8 °F 33.1 °F 96% 29.91 in 10.0 mi SW 4.6 mph - N/A   Partly Cloudy
9:53 AM 35.1 °F 32.2 °F 33.1 °F 92% 29.91 in 10.0 mi WSW 3.5 mph - N/A   Mostly Cloudy
10:53 AM 36.0 °F 32.1 °F 34.0 °F 93% 29.91 in 10.0 mi WSW 4.6 mph - N/A   Mostly Cloudy
11:53 AM 36.0 °F 31.1 °F 33.1 °F 89% 29.91 in 10.0 mi West 5.8 mph - N/A   Mostly Cloudy
12:53 PM 36.0 °F 31.1 °F 34.0 °F 93% 29.91 in 10.0 mi West 5.8 mph - N/A   Scattered Clouds
1:53 PM 37.0 °F 31.6 °F 34.0 °F 89% 29.91 in 10.0 mi West 6.9 mph - N/A   Scattered Clouds
2:53 PM 37.0 °F 32.4 °F 34.0 °F 89% 29.91 in 10.0 mi West 5.8 mph - N/A   Scattered Clouds
3:53 PM 37.0 °F 32.4 °F 34.0 °F 89% 29.90 in 10.0 mi West 5.8 mph - N/A   Scattered Clouds
4:53 PM 37.9 °F 31.5 °F 34.0 °F 86% 29.88 in 10.0 mi WNW 9.2 mph - N/A   Scattered Clouds
5:53 PM 37.9 °F 30.9 °F 34.0 °F 86% 29.88 in 10.0 mi WNW 10.4 mph - N/A   Scattered Clouds
6:53 PM 37.9 °F 31.5 °F 34.0 °F 86% 29.87 in 10.0 mi WNW 9.2 mph - N/A   Partly Cloudy
7:53 PM 37.0 °F 28.9 °F 33.1 °F 86% 29.86 in 10.0 mi WNW 12.7 mph - N/A   Partly Cloudy
8:53 PM 36.0 °F 26.7 °F 33.1 °F 89% 29.86 in 10.0 mi WNW 15.0 mph - N/A   Clear
9:43 PM 33.8 °F 22.5 °F 32.0 °F 93% 29.86 in 10.0 mi WNW 19.6 mph - N/A   Partly Cloudy
9:53 PM 34.0 °F 22.7 °F 32.0 °F 92% 29.86 in 10.0 mi WNW 19.6 mph - N/A   Partly Cloudy
10:53 PM 33.1 °F 20.3 °F 32.0 °F 96% 29.87 in 10.0 mi WNW 24.2 mph - N/A   Partly Cloudy
11:53 PM 33.1 °F 22.2 °F 32.0 °F 96% 29.87 in 10.0 mi WNW 17.3 mph - N/A   Partly Cloudy